Location: Dötzum
(52.0808°N, 9.8063°E)
Time: 06:24:35
(UTC+00:00)

USA 307 - Pass Details

Date: 27 May 2022
Orbit: 552 x 554 km, 54.0° (Epoch: 17 June)

Event Time Altitude Azimuth Distance (km) Brightness Sun altitude
Exits shadow 01:43:46 - 254° (WSW) 2,053 5.3 -10.0°
Reaches altitude 10° 01:44:19 10° 255° (WSW) 1,838 5.0 -10.0°
Maximum altitude 01:48:30 85° 343° (NNW) 565 2.9 -9.6°
Drops below altitude 10° 01:52:42 10° 73° (ENE) 1,846 6.4 -9.2°
Sets 01:54:57 0° 74° (ENE) 2,743 7.3 -9.0°
